sat.trackr.live / text

‹ back to catalog

STARLINK-3672

NORAD 51974 · 2022-025U

PAYLOAD ACTIVE UNKNOWN

§ Identity

Operator
Country
US
Launch date
2022-03-09
Launch site
AFETR
Launch vehicle
Mass (kg)
RCS (m²)

Purposes: comms

External: N2YO · Heavens-Above · Gunter

§ Orbital elements

Epoch: 2026-09-19T06:52:17.974560Z

Period
94.01 min
Inclination
53.1602°
Eccentricity
0.0001373
Mean motion
15.31704209 rev/d
Perigee alt
469.8 km
Apogee alt
471.7 km
Semi-major
6,848.9 km
B*
2.6002e-5
RAAN
216.2315°
Arg perigee
84.4691°
Mean anomaly
275.6467°
Rev number
25,048

§ Raw data

STARLINK-36721 51974U 22025U   26262.28631915  .00000442  00000+0  26002-4 0  99932 51974  53.1602 216.2315 0001373  84.4691 275.6467 15.31704209250489

JSON: /api/v1/satellites/51974 · /tle

For live sub-satellite position, see the globe view (requires WebGL).

§ Visibility from observer

Set your observer location to see the next 7 days of passes ≥ 10°. The values pass through the URL so the page stays shareable.

No JS? Fill the form by hand. The geolocation button needs JavaScript.